This is the latest recevied weather packets stored in our database for station/object W7TTE. If no packets are shown the sender has not sent any weather packets the latest 10 day(s).
| Time | Temp. | Humidity | Pressure | Rain* | Wind** | Luminosity | Snow |
|---|---|---|---|---|---|---|---|
| 1777832112 | 32.22° C | 20% | 1013 hPa | 0 mm | - | 770 W/m² | - |
| 1777831808 | 32.22° C | 19% | 1013.4 hPa | 0 mm | - | 724 W/m² | - |
| 1777831506 | 31.67° C | 19% | 1013.5 hPa | 0 mm | - | 593 W/m² | - |
| 1777831202 | 31.67° C | 20% | 1013.5 hPa | 0 mm | - | 453 W/m² | - |
| 1777830900 | 31.11° C | 20% | 1013.4 hPa | 0 mm | - | 337 W/m² | - |
| 1777830596 | 31.11° C | 21% | 1013.5 hPa | 0 mm | - | 340 W/m² | - |
| 1777830295 | 31.67° C | 20% | 1013.4 hPa | 0 mm | - | 367 W/m² | - |
| 1777829990 | 31.67° C | 21% | 1013.5 hPa | 0 mm | - | 396 W/m² | - |
| 1777829685 | 31.11° C | 21% | 1013.6 hPa | 0 mm | - | 407 W/m² | - |
| 1777829383 | 31.11° C | 20% | 1013.4 hPa | 0 mm | - | 354 W/m² | - |
| 1777829080 | 31.11° C | 21% | 1013.7 hPa | 0 mm | - | 409 W/m² | - |
| 1777828776 | 31.11° C | 21% | 1013.7 hPa | 0 mm | - | 350 W/m² | - |
| 1777828473 | 31.11° C | 20% | 1013.6 hPa | 0 mm | - | 355 W/m² | - |
| 1777828171 | 31.11° C | 20% | 1013.5 hPa | 0 mm | - | 381 W/m² | - |
| 1777827867 | 30.56° C | 21% | 1013.7 hPa | 0 mm | - | 354 W/m² | - |
| 1777827564 | 31.11° C | 19% | 1013.6 hPa | 0 mm | - | 369 W/m² | - |
| 1777827261 | 30.56° C | 20% | 1013.6 hPa | 0 mm | - | 333 W/m² | - |
| 1777826957 | 30.56° C | 20% | 1013.5 hPa | 0 mm | - | 350 W/m² | - |
| 1777826655 | 30.56° C | 21% | 1013.4 hPa | 0 mm | - | 401 W/m² | - |
| 1777826351 | 30.56° C | 21% | 1013.5 hPa | 0 mm | - | 356 W/m² | - |
| 1777826049 | 30° C | 20% | 1013.5 hPa | 0 mm | - | 358 W/m² | - |
| 1777825745 | 30° C | 20% | 1013.5 hPa | 0 mm | - | 353 W/m² | - |
| 1777825443 | 30° C | 21% | 1013.5 hPa | 0 mm | - | 294 W/m² | - |
| 1777825140 | 30° C | 21% | 1013.4 hPa | 0 mm | - | 299 W/m² | - |
| 1777824836 | 29.44° C | 21% | 1013.4 hPa | 0 mm | - | 318 W/m² | - |
* Rain latest hour (hover to see other rain measurements)
** Current wind speed in m/s (hover to see current wind gust speed)